Other Public Products
Issued by NWS Grand Forks, ND

Home | Current Version | Previous Version | Graphics & Text | Print | Product List | Glossary Off
Versions: 1 2 3 4 5 6 7 8 9 10 11 12 13 14 15 16 17 18 19 20 21 22 23 24 25 26 27 28 29 30 31 32 33 34 35 36 37 38 39 40 41 42 43 44 45 46 47 48 49 50

000
FPUS83 KFGF 032210
OPUFGF
PRAIRIE TO PINES WEATHER ROUNDUP
NATIONAL WEATHER SERVICE EASTERN NORTH DAKOTA/GRAND FORKS ND
500 PM CDT MON AUG 03 2015

 **SATELLITE DATA USED TO AUGMENT SKY COVER AT AUTOMATED STATIONS**
 *****  WEATHER ACROSS EASTERN NORTH DAKOTA  *****

CITY           SKY/WX    TMP DP  RH WIND       PRES   REMARKS
GRAND FORKS    MOSUNNY   78  48  34 NW13      29.91S
GRAND FORKS AF SUNNY     77  47  35 N14       29.93S
GRAND CITY NWS   N/A     79 N/A N/A N7          N/A
BUXTON         NOT AVBL
DEVILS LAKE    SUNNY     77  43  29 NW12G18   29.95S
FARGO          SUNNY     80  46  30 NW12G25   29.92S
WAHPETON ARPT  CLEAR     77  41  27 NW13      29.94S
$$

 *****  WEATHER ACROSS CENTRAL AND WESTERN NORTH DAKOTA  *****

CITY           SKY/WX    TMP DP  RH WIND       PRES   REMARKS
JAMESTOWN      SUNNY     77  45  32 NW5       29.97S
BISMARCK       SUNNY     82  47  29 VRB5      29.97F
MINOT          SUNNY     80  42  25 W10       29.97F
MINOT AFB      SUNNY     82  44  25 N9        29.96F
GARRISON         N/A     79  50  36 N8        29.98F
WILLISTON      SUNNY     83  43  24 E7        29.97F
DICKINSON      SUNNY     82  48  30 VRB3      29.97F
HETTINGER      SUNNY     84  49  29 VRB3      29.99F
$$

 *****  OTHER OBSERVATIONS NORTHEAST NORTH DAKOTA  *****

CITY           SKY/WX    TMP DP  RH WIND       PRES   REMARKS
WALHALLA       NOT AVBL
LANGDON        FAIR      77  43  29 NW18      29.95S
CAVALIER       FAIR      77  46  33 NW9G17    29.91F
GRAFTON        FAIR      77  48  36 NW9G17    29.92S
CANDO          NOT AVBL
FORT TOTTEN      N/A     78  48  34 N6        29.95
ROLLA          NOT AVBL
RUGBY          NOT AVBL
 ***** THE ABOVE OBSERVATIONS ARE NON NWS ARE NOT QUALITY
        CONTROLLED AND MAY MIS-REPORT RAIN FOR SNOW...
$$

 *****  OTHER OBSERVATIONS SOUTHEAST NORTH DAKOTA *****

CITY           SKY/WX    TMP DP  RH WIND       PRES   REMARKS
COOPERSTOWN    NOT AVBL
VALLEY CITY    FAIR      77  46  33 N10       29.96S
OAKES          NOT AVBL
GWINNER        FAIR      79  48  34 NW9       29.96S
SHEYENNE NWR     N/A     80  48  32 N8        29.95S
BUFFALO        NOT AVBL
WYNDMERE         N/A     79  48  34 NW7         N/A
 ***** THE ABOVE OBSERVATIONS ARE NON NWS ARE NOT QUALITY
       CONTROLLED AND MAY MIS-REPORT RAIN FOR SNOW...
$$

  *****  WEATHER ACROSS NORTHERN MINNESOTA  *****

CITY           SKY/WX    TMP DP  RH WIND       PRES   REMARKS
FLAG ISLAND    CLOUDY    66  52  59 NW15      29.87S
WARROAD        SUNNY     72  52  49 NW13      29.90S
ROSEAU         MOSUNNY   70  54  56 NW9       29.90S
HALLOCK        SUNNY     75  45  33 NW15G21   29.91S
THF RVR FALLS  MOSUNNY   72  48  43 NW15      29.93R
HALSTAD        NOT AVBL
FOSSTON        MOSUNNY   73  48  40 NW13G20   29.93S
BAUDETTE       CLOUDY    68  53  58 NW16      29.89S
WASKISH        CLOUDY    64  54  68 NW10      29.91R
CROOKSTON      SUNNY     75  48  38 N15       29.92F
$$
  *****  WEATHER ACROSS CENTRAL AND WEST MINNESOTA  *****

CITY           SKY/WX    TMP DP  RH WIND       PRES   REMARKS
BEMIDJI        MOSUNNY   70  50  48 NW16G22   29.91R
PARK RAPIDS    PTSUNNY   74  50  42 NW18G24   29.91S
WADENA         MOSUNNY   75  50  41 NW16      29.92S
DETROIT LAKES  SUNNY     73  46  38 NW15G23   29.95S
MOORHEAD       SUNNY     75  50  41 N15G21    29.93S
FERGUS FALLS   SUNNY     75  48  38 N13G21    29.92S
ELBOW LAKE     FAIR      76  49  38 N14G21    29.93S
MORRIS MN      SUNNY     79  54  41 NW12G20   29.93S
STAPLES        PTSUNNY   75  46  35 NW14G23   29.91S
WHEATON        NOT AVBL
$$
  *****  WEATHER ELSEWHERE ACROSS MINNESOTA  *****

CITY           SKY/WX    TMP DP  RH WIND       PRES   REMARKS
DULUTH         PTSUNNY   70  52  52 NW14G22   29.86R
INTRNTL FALLS  CLOUDY    64  57  78 NW15G21   29.86S
ELY            PTSUNNY   63  55  77 NW3       29.85R
CLOQUET        CLOUDY    70  52  52 W8        29.87S
BRAINERD       CLOUDY    74  50  42 NW13      29.90R
HIBBING        CLOUDY    67  53  61 W12       29.87R
ALEXANDRIA     SUNNY     76  48  37 NW12      29.95S
SAINT CLOUD    MOSUNNY   77  49  37 NW12G21   29.90R
MINNEAPOLIS    MOSUNNY   79  48  33 W16G24    29.89F
$$

  *****  WEATHER ACROSS SOUTH DAKOTA  *****

CITY           SKY/WX    TMP DP  RH WIND       PRES   REMARKS
SIOUX FALLS    MOSUNNY   82  58  43 N6        29.96F
BROOKINGS      MOSUNNY   79  55  44 NW12      29.98S
WATERTOWN      SUNNY     78  51  38 NW13      29.97S
HURON          SUNNY     82  53  36 NW8       29.95F
SISSETON         N/A     78  50  37 N13       29.94R
ABERDEEN       SUNNY     82  49  31 N6        29.96S
MITCHELL       SUNNY     84  59  42 VRB6      29.95F
PIERRE         SUNNY     85  52  32 VRB3      29.94F
MOBRIDGE       SUNNY     86  55  34 N7        29.94F
RAPID CITY     PTSUNNY   83  60  45 SE10      29.97F
$$

  *****  SOME WEATHER IN NEARBY STATES *****

CITY           SKY/WX    TMP DP  RH WIND       PRES   REMARKS
GLASGOW MT     SUNNY     87  47  24 SE12      29.92F
GREAT FALLS MT SUNNY     94  45  18 NE8       29.84F HX  90
CHEYENNE WY    CLOUDY    79  37  22 S16G26    30.12F
SCOTTSBLUFF NE PTSUNNY   89  62  40 SE15      29.96F
OMAHA NE       PTSUNNY   83  64  52 NE5       29.95F
DES MOINES IA  MOSUNNY   84  57  39 NW8       29.93F
DAVENPORT IA   SUNNY     79  54  41 W9        29.92S
CHICAGO IL     MOSUNNY   81  48  31 NW13G23   29.85S
EAU CLAIRE WI  MOSUNNY   77  48  35 NW16G22   29.87S
LA CROSSE WI   SUNNY     81  52  36 NW14      29.87S
$$

  *****  SOME NATIONAL WEATHER *****

CITY           SKY/WX    TMP DP  RH WIND       PRES   REMARKS
LA GUARDIA NY  MOSUNNY   87  66  49 S12G26    29.76S
RALEIGH NC     MOSUNNY   93  64  38 S8        29.88F HX  94
ATLANTA GA     PTSUNNY   92  66  42 W7        29.91F HX  94
NEW ORLEANS LA PTSUNNY   87  70  56 SW7       29.91F HX  92
OKLAHOMA CITY  PTSUNNY   83  68  60 SE8       29.93F
ALBUQUERQUE NM MOSUNNY   89  46  22 NW16G22   30.10F
SALT LAKE CITY LGT RAIN  65  58  78 CALM      30.14F
LOS ANGELES CA MOSUNNY   75  65  70 W13       29.89F
BOISE ID       CLOUDY    89  43  20 VRB3      29.90F
SEATTLE WA     PTSUNNY   77  55  46 W9        29.92S
$$

*** WEATHER ACROSS MANITOBA...SASKATCHEWAN AND ONTARIO ***
                ***ONTARIO***

CITY           SKY/WX    TMP DP  RH WIND       PRES   REMARKS
GERALDTON      PTSUNNY   61  50  67 NW8       29.70R
THUNDER BAY    PTSUNNY   66  57  72 NW13G21   29.75R
SIOUX LOOKOUT  PTSUNNY   63  52  67 NW15G22   29.81R
TORONTO        PTSUNNY   79  50  36 W16G22    29.73F
BIG TROUT LK   CLOUDY    50  48  93 NW9       29.78R
PICKLE LAKE    PTSUNNY   55  46  71 VRB7      29.78S
DRYDEN         CLOUDY    63  52  67 NW7       29.84R
KENORA         PTSUNNY   61  55  82 W9        29.87S
$$
                *** MANITOBA***

CITY           SKY/WX    TMP DP  RH WIND       PRES   REMARKS
BRANDON        MOSUNNY   79  46  31 NW16G25   29.94F
DAUPHIN        SUNNY     75  54  46 E10       29.91S
ISLAND LAKE    NOT AVBL
PILOT MOUND      N/A     73  45  35 NW12        N/A
THE PAS        PTSUNNY   70  50  49 NE6       29.95R
THOMPSON       LGT RAIN  59  52  77 N8        29.95R
WINNIPEG       MOSUNNY   75  45  33 NW20G28   29.90S
LYNN LAKE      MOSUNNY   63  50  63 N6        29.97S
CHURCHILL      CLOUDY    48  46  93 N10       29.94S
GILLAM         CLOUDY    55  48  76 N7        29.93S
$$
                ***SASKATCHEWAN***

CITY           SKY/WX    TMP DP  RH WIND       PRES   REMARKS
ESTEVAN        MOSUNNY   81  50  34 NW8       29.99F
KINDERSLEY     MOSUNNY   84  54  34 SE16G26   29.90F
LLOYDMINSTER   PTSUNNY   81  48  32 SE22      29.90F
PRINCE ALBERT  MOSUNNY   79  54  41 S6        29.96S
REGINA         MOSUNNY   81  50  34 VRB3      29.99F



USA.gov is the U.S. government's official web portal to all federal, state and local government web resources and services.